カタログに戻る

FENGYUN 1C DEB

運用中SSO
NORAD 30009·DEBRIS·🇨🇳 China

打ち上げ May 10, 1999 から Taiyuan Satellite Launch Center

Loading…

次のパス (今後24時間)

TLE

最新Source: Space-Track

元期: Sep 14, 2026, 02:02 UTC

1 30009U 99025MJ  26257.08534479  .00001228  00000-0  76926-3 0  9995
2 30009  98.9936 315.0099 0061645 285.0595  74.3757 14.05583484  3481

AllMySatでFENGYUN 1C DEBをリアルタイム追跡

Download on the App Store